Theta_e
352 352 352 350 350 349 350 348 348 346 347 345 344 343 340 338 333 329 329 328 334 339 350 346 350 359 359 358 359 357 350 354 358 351 349 347 347 349 352 356 355 357 358 359 359 357 357 357 357 357 357 357 357 357 356 356 356 356 356 356 355 355 355 352 356 356 357 356 355 354 354 353 353 353
352 353 353 352 350 351 350 347 345 345 345 344 344 343 343 341 336 334 330 330 337 338 345 351 348 355 358 359 359 359 352 358 357 350 349 348 348 350 352 356 355 356 356 357 359 357 357 358 357 357 357 357 356 356 356 356 355 355 355 355 355 355 354 351 350 352 354 353 353 353 354 353 353 353
354 353 351 350 349 349 349 350 348 346 344 344 343 342 342 343 340 336 335 329 335 344 342 349 353 354 357 360 360 360 353 356 355 350 349 349 353 353 354 356 355 355 354 353 353 357 358 357 357 357 357 357 356 356 356 357 356 356 355 355 355 355 354 352 351 352 353 354 354 354 354 354 353 351
353 350 349 349 349 350 350 350 350 348 346 346 343 343 342 342 344 342 337 334 333 343 346 347 351 356 356 359 359 356 353 356 356 351 349 350 355 352 352 353 353 353 353 352 351 351 354 358 355 356 356 356 356 357 357 357 356 356 355 355 356 355 354 353 353 354 355 354 354 354 353 352 351 351
352 351 350 350 352 353 351 350 350 349 348 347 345 344 342 341 343 343 340 336 336 339 346 347 348 354 357 356 358 353 349 351 353 353 349 351 351 350 350 351 348 350 351 350 349 349 350 355 357 353 353 354 354 356 353 351 352 353 353 353 352 355 353 354 355 355 353 352 352 352 351 351 352 352
353 352 350 350 352 352 351 351 350 349 348 348 347 346 344 341 341 343 342 339 337 335 343 346 352 354 357 354 355 351 346 345 350 349 349 350 350 349 349 348 348 347 348 348 348 348 349 351 352 354 351 351 350 351 356 355 353 353 353 351 348 350 351 353 354 353 353 354 353 352 352 352 351 352
352 352 352 352 351 353 349 348 349 351 350 350 349 347 347 346 347 346 344 341 337 336 339 347 349 352 354 351 350 349 348 348 348 346 347 347 348 350 348 346 346 344 345 345 345 345 346 347 348 350 352 354 355 355 351 345 340 342 342 339 341 346 348 348 348 352 353 353 353 352 351 351 351 351
351 351 350 351 349 349 347 347 348 349 350 349 349 348 349 348 348 349 348 343 340 339 338 346 350 352 352 345 348 349 348 346 344 344 343 344 345 346 348 345 345 344 343 343 343 342 342 342 342 343 344 346 347 341 336 335 335 336 336 337 339 340 341 340 340 343 345 347 349 351 351 351 350 350
351 351 351 350 348 347 347 349 350 351 350 350 350 349 351 350 351 354 350 348 343 339 339 344 346 349 347 345 346 348 344 344 344 342 341 341 342 343 345 346 346 344 342 341 340 340 339 338 337 337 337 337 336 333 332 333 333 333 333 333 334 335 336 335 335 336 337 338 340 342 344 343 344 344
353 351 350 350 349 348 347 347 348 349 348 350 351 351 352 352 352 349 349 348 346 343 341 344 344 345 347 343 343 344 345 344 343 342 343 341 341 343 341 342 344 344 342 340 339 338 337 335 335 335 334 333 333 332 332 331 330 330 329 329 330 331 332 332 331 332 332 334 335 337 338 338 338 340
353 352 351 350 348 348 347 347 347 348 350 353 352 353 352 352 350 348 347 349 345 342 342 344 345 345 345 343 342 346 347 344 342 341 340 340 344 344 341 339 340 341 340 340 339 338 337 336 336 334 332 333 333 332 332 331 331 329 327 325 327 329 329 329 328 328 329 329 329 330 330 333 336 338
353 353 352 350 349 348 348 348 349 351 351 350 351 352 354 351 349 348 349 348 346 344 342 340 343 343 343 341 342 343 343 340 340 341 340 339 340 342 342 340 338 339 340 337 338 338 338 337 335 334 333 334 334 333 332 333 333 332 328 325 326 328 327 327 327 326 326 326 325 324 324 325 328 332
353 353 353 352 351 354 358 360 359 359 360 353 351 352 353 351 349 348 348 348 346 345 345 343 344 344 338 338 339 339 339 338 340 341 341 338 339 342 341 341 342 341 339 338 337 336 336 334 333 333 332 332 334 333 334 333 334 332 328 326 326 327 326 325 325 325 324 324 323 322 321 320 321 323
350 353 353 356 362 361 359 360 360 360 360 358 356 354 352 350 349 348 346 345 345 344 342 342 342 343 337 337 339 339 339 341 341 340 339 337 337 339 341 341 341 343 340 337 335 336 336 334 333 333 332 333 338 333 332 331 331 330 328 326 326 326 326 324 323 323 322 321 320 320 319 319 320 320
349 351 353 353 358 361 359 359 356 357 360 357 357 357 356 355 351 345 347 346 346 345 345 343 342 340 339 338 339 338 338 339 340 340 340 339 338 337 337 335 340 343 340 336 335 335 335 335 333 332 333 333 334 330 328 330 329 327 326 325 325 325 324 324 323 322 320 319 319 319 318 319 320 320
350 350 351 353 355 356 356 354 354 358 359 359 359 358 357 356 355 356 352 350 346 345 345 343 343 340 341 340 339 339 338 339 341 342 341 338 337 337 337 338 337 340 342 337 335 335 336 335 334 332 332 331 330 328 327 328 327 326 325 324 324 324 323 323 322 321 321 320 319 319 319 319 319 319
348 348 350 352 353 353 359 357 353 352 354 357 358 357 356 356 354 346 346 350 352 347 344 345 343 344 342 338 339 342 341 342 341 342 340 339 337 337 337 339 340 340 341 338 336 334 335 335 333 331 327 326 326 326 326 326 326 325 324 323 323 323 322 322 322 321 321 320 319 319 318 318 319 318
349 349 349 349 350 349 351 350 348 350 349 346 345 345 347 345 350 353 353 350 350 351 349 345 344 345 344 344 343 345 345 341 340 340 339 339 337 336 336 340 340 340 342 339 336 334 334 335 332 328 323 324 323 323 322 323 324 323 323 322 322 322 322 322 321 321 320 319 318 317 317 317 317 316
346 349 351 349 349 346 345 348 351 347 346 346 348 346 345 346 346 347 347 347 347 349 348 345 347 346 343 343 343 344 346 345 344 343 341 341 340 339 339 337 338 338 343 341 338 333 333 333 330 324 320 321 320 322 322 322 322 322 321 321 321 321 321 321 321 320 319 318 317 316 315 315 315 316
344 348 349 348 345 345 344 345 346 354 348 345 344 342 341 342 343 344 353 343 348 351 347 348 348 347 346 346 346 347 346 346 345 347 344 342 340 337 335 334 337 337 341 343 339 334 328 329 329 320 320 320 318 319 320 321 322 321 321 320 320 320 320 320 319 319 318 318 317 316 314 314 314 314
344 346 344 346 346 342 341 336 328 340 354 339 342 340 338 339 338 339 342 343 343 341 339 339 340 340 338 336 334 334 337 345 345 342 339 338 338 334 331 333 334 335 339 343 342 337 325 325 323 317 317 318 318 317 318 319 320 320 319 319 319 318 318 317 317 317 317 316 316 315 314 313 314 315
343 348 352 345 338 335 334 326 327 334 347 337 336 334 333 334 335 336 337 339 343 342 341 336 335 336 336 337 337 336 333 335 346 342 337 340 338 334 333 331 331 332 338 342 343 332 326 322 319 316 316 316 316 316 317 318 318 318 317 318 318 317 316 316 315 315 315 315 315 314 314 314 315 317
334 335 341 343 339 335 328 319 322 327 341 335 334 332 331 332 335 337 333 332 335 338 339 338 343 341 342 344 341 344 342 343 349 346 343 342 338 335 334 333 330 328 330 337 340 334 320 319 318 316 313 310 313 316 317 317 317 318 318 318 318 317 316 316 315 314 314 314 314 314 314 314 314 316
331 330 330 332 323 321 320 317 316 319 325 335 336 337 335 334 333 332 329 333 335 334 336 336 340 345 344 344 343 342 346 348 348 345 342 340 339 337 335 333 331 326 323 329 337 335 321 321 317 320 316 311 310 312 315 315 316 317 316 316 316 317 317 315 313 313 313 313 313 313 313 313 314 315
332 329 327 327 325 318 317 316 314 313 318 329 337 339 337 338 334 333 328 331 342 334 335 338 342 343 343 344 343 343 341 340 338 338 338 339 336 336 336 334 333 332 332 334 335 332 319 320 317 318 316 314 311 310 312 314 315 315 316 315 314 315 315 314 314 313 311 310 309 309 310 311 312 314
331 328 325 326 327 318 317 316 312 310 314 321 336 334 321 319 321 328 333 332 332 332 334 334 341 340 339 337 337 337 336 337 337 336 336 336 337 337 337 336 335 332 334 334 330 333 321 318 319 317 313 311 310 312 309 311 313 314 315 315 315 314 315 314 314 312 312 312 313 310 310 310 311 311
328 327 326 327 330 317 313 308 309 310 312 327 329 316 315 317 320 329 331 334 333 330 334 338 338 338 337 335 333 333 332 332 333 332 333 333 333 334 335 337 335 334 334 332 336 333 326 321 322 319 315 313 310 312 311 309 309 313 312 313 313 314 315 313 312 312 313 313 312 311 311 311 311 311
324 322 322 325 317 312 305 305 310 311 318 325 317 312 316 320 332 333 332 330 332 336 336 337 336 336 336 335 333 333 331 329 327 329 330 330 331 331 330 331 333 332 328 328 331 330 327 323 322 323 318 314 312 310 309 312 312 311 310 312 312 312 312 313 312 313 314 313 311 311 310 310 311 310
325 322 313 311 309 310 308 309 312 317 325 318 314 314 317 338 332 332 330 330 330 333 334 334 334 334 334 333 332 329 329 330 329 329 329 329 329 330 330 329 330 330 331 330 328 328 327 324 323 321 318 317 315 314 313 310 310 310 311 310 308 311 312 312 312 313 312 310 309 310 310 309 310 310
327 319 313 312 314 315 316 322 326 329 334 332 332 330 335 330 329 330 331 332 332 333 333 333 332 332 333 332 332 333 332 329 326 327 327 325 325 326 327 326 325 327 328 330 328 327 326 325 323 320 318 318 318 315 313 311 310 311 314 311 310 313 313 312 312 313 312 310 310 310 309 310 310 311
323 327 330 327 324 324 329 332 334 333 333 334 333 328 328 329 328 328 327 325 328 329 330 331 331 331 331 332 332 329 328 328 328 329 327 323 324 325 325 324 322 323 325 326 329 328 327 325 322 320 318 317 318 316 314 314 311 311 312 312 311 307 310 311 312 312 311 310 311 311 309 309 310 314
320 323 331 330 332 330 328 326 326 325 328 334 331 325 325 326 331 335 337 335 325 325 328 328 329 330 329 327 327 328 327 326 327 328 327 326 324 325 323 321 320 321 321 323 324 326 328 324 323 322 321 319 315 315 315 314 312 312 312 313 314 315 312 311 312 313 313 312 311 310 309 307 307 309
323 326 326 327 325 326 327 326 325 324 325 324 324 326 322 321 321 322 320 320 321 323 326 326 327 327 327 326 327 326 325 326 325 326 325 325 323 324 323 321 321 320 319 319 321 321 322 323 325 322 320 320 318 316 314 312 313 313 312 312 313 313 312 313 313 311 311 308 307 307 307 307 307 308
318 319 320 321 321 324 323 323 323 323 323 321 321 321 328 325 321 322 323 322 321 323 325 325 325 325 325 323 324 324 324 323 324 324 324 323 324 322 321 320 320 320 320 319 319 319 319 319 320 320 321 320 320 319 318 314 312 313 314 313 313 312 312 312 312 311 309 307 306 305 307 306 307 309
320 320 320 320 320 321 322 322 323 323 323 322 321 320 321 322 325 326 322 319 320 324 323 323 322 322 322 322 322 321 322 323 322 323 323 323 322 321 321 320 319 319 319 318 317 318 318 317 317 316 316 316 315 317 316 318 314 313 314 313 313 312 312 312 311 310 309 307 307 306 307 308 307 309
316 318 317 318 318 320 320 322 326 323 324 324 323 322 322 321 323 322 320 319 320 320 320 319 321 320 321 321 320 319 320 321 318 318 318 318 319 320 320 320 320 320 319 318 317 318 318 317 316 314 312 312 311 310 313 315 315 315 313 312 312 312 312 312 312 311 309 307 307 305 304 305 307 310
316 316 317 317 320 321 322 321 321 325 325 325 324 324 323 321 322 324 321 319 320 321 320 319 319 319 319 319 320 320 319 317 315 316 315 314 315 315 315 317 319 319 318 318 318 317 317 316 315 313 311 310 310 309 310 313 314 314 314 312 311 312 312 311 310 308 308 307 305 305 305 306 306 308
316 316 319 320 321 323 324 324 323 322 324 326 326 324 323 323 323 323 320 319 321 321 321 319 320 320 317 319 316 316 316 317 317 315 315 313 312 312 311 313 315 318 317 317 318 316 316 315 314 312 311 309 308 307 307 309 311 312 313 312 310 310 312 310 308 306 305 306 306 307 307 305 305 306
315 316 318 318 319 321 323 325 325 322 320 323 325 325 324 323 322 321 321 322 321 322 319 319 318 319 319 317 318 318 316 315 316 314 314 313 313 311 312 312 313 314 316 316 316 315 314 313 312 312 311 309 309 308 309 308 309 312 312 311 311 309 309 308 307 306 305 305 306 307 307 307 311 315
316 318 318 319 320 321 321 325 324 320 322 325 325 325 325 324 323 323 323 324 323 323 322 321 321 320 319 319 319 318 317 318 317 315 316 314 315 314 313 313 312 313 313 315 314 313 311 312 314 313 312 311 311 312 313 312 311 312 313 311 311 311 310 308 307 306 305 306 305 303 303 305 305 306
320 320 321 322 321 322 321 322 323 324 324 323 324 328 325 325 324 323 323 323 327 322 321 322 322 321 321 320 320 320 319 319 317 317 317 316 316 316 316 318 313 312 312 312 313 312 313 314 318 321 318 315 317 314 312 308 307 307 309 311 311 312 312 312 309 307 306 307 306 304 303 303 303 304
320 322 322 324 324 324 321 321 323 323 323 322 322 326 324 325 325 330 328 331 326 324 323 323 323 323 322 322 321 321 320 319 318 318 318 316 315 316 318 316 312 312 312 312 313 314 315 316 322 321 318 316 313 310 307 309 307 307 308 309 311 311 311 312 312 311 310 309 307 304 303 304 302 303
322 321 321 322 324 324 322 322 323 322 321 320 319 320 323 324 323 326 324 323 324 324 323 323 323 323 323 323 323 322 322 321 320 319 318 317 317 316 315 315 315 314 314 314 315 315 316 318 318 319 317 316 315 312 310 310 308 308 308 309 310 311 311 310 311 311 311 312 312 311 310 308 303 301
318 319 320 320 322 324 323 322 322 323 322 321 320 318 318 319 320 324 324 322 322 322 324 324 323 324 324 323 324 323 322 322 322 320 319 319 318 317 316 316 316 315 315 315 314 314 314 315 317 317 316 316 315 312 311 310 309 310 310 309 310 310 311 310 312 310 310 310 311 313 313 313 313 314
319 320 321 321 320 324 323 325 322 321 324 321 319 316 317 318 319 320 320 321 321 322 322 322 323 323 324 324 323 322 322 326 324 322 321 320 318 318 317 317 316 315 315 315 314 313 314 313 314 315 316 316 315 315 315 313 310 310 309 309 310 311 311 310 310 310 310 310 311 311 312 313 313 314
Wind_Speed
3 2 3 3 5 5 2 2 3 4 4 5 4 5 6 5 3 2 2 3 4 3 6 4 4 6 6 6 5 5 5 7 8 5 5 4 3 3 4 1 1 2 2 3 6 5 6 7 9 8 8 8 8 8 9 9 10 9 9 9 7 8 5 1 1 4 6 6 5 6 7 7 7 6
3 3 3 3 4 4 2 3 3 4 5 5 5 5 5 4 6 5 4 6 4 3 2 4 4 4 5 5 5 5 5 8 8 5 6 6 5 5 3 2 1 2 1 2 6 8 8 8 8 8 9 9 9 8 9 9 8 8 8 8 9 6 7 3 4 5 6 7 7 7 7 6 6 6
3 3 5 4 4 3 2 2 2 3 4 6 6 7 5 5 6 6 5 4 5 5 4 6 4 4 5 4 4 4 4 7 7 4 3 4 7 8 4 4 3 2 2 1 0 2 8 8 9 9 9 9 9 9 10 9 9 8 9 8 9 9 8 8 7 8 10 10 9 9 8 8 7 8
4 4 5 4 4 3 2 2 3 3 4 5 5 6 6 6 8 7 6 7 8 4 5 4 4 4 5 5 5 4 3 5 9 4 4 4 7 6 5 7 7 6 5 4 1 1 4 6 8 8 9 9 9 9 9 10 9 8 8 9 10 10 9 10 10 10 10 10 10 9 9 9 9 9
4 4 4 4 3 2 3 4 4 3 4 4 5 4 4 5 5 5 6 6 7 4 3 3 2 2 5 4 4 5 4 5 4 4 3 3 3 3 4 4 8 8 7 6 4 2 2 5 8 8 7 7 9 11 9 6 8 10 10 11 7 9 9 10 10 10 10 10 9 9 10 10 10 10
4 3 4 4 4 3 3 4 5 4 4 3 3 3 4 4 4 6 5 7 4 7 2 2 1 3 4 5 3 6 6 4 3 3 4 3 3 3 3 3 3 8 7 6 5 3 2 3 3 3 4 6 4 4 6 6 4 3 2 2 3 8 9 10 10 11 11 10 9 9 10 10 10 9
4 4 4 5 4 2 3 3 4 4 4 3 3 5 3 2 1 1 4 4 5 6 5 1 2 3 4 4 4 2 3 4 4 5 4 3 2 2 2 2 1 4 6 6 5 5 4 4 4 4 4 3 4 6 5 5 4 3 3 2 1 5 8 8 7 6 5 6 7 9 9 10 10 9
4 5 5 5 4 3 3 4 4 5 4 4 5 4 3 2 2 1 0 4 5 4 4 2 4 3 5 1 3 3 3 4 2 2 2 2 2 1 2 3 3 4 6 7 7 7 7 6 6 6 5 5 5 5 5 4 4 3 2 1 1 1 2 4 5 5 4 5 6 7 8 8 8 7
4 4 5 5 4 3 4 4 4 4 4 4 4 5 4 2 1 0 0 0 2 3 4 3 0 2 1 2 2 4 5 2 2 1 1 1 3 2 3 4 4 5 7 7 8 7 7 7 6 7 6 6 6 6 5 5 4 4 4 3 3 3 4 4 5 6 7 7 8 8 8 8 8 8
4 5 6 5 4 3 4 5 4 3 4 4 4 3 2 1 1 0 0 1 1 1 2 3 1 1 4 2 3 2 2 5 3 1 1 1 2 3 3 3 3 2 2 2 3 5 6 7 8 7 6 6 6 7 6 6 6 6 6 6 6 6 6 6 6 7 7 8 8 7 7 6 6 7
5 5 5 4 3 4 4 5 5 4 4 3 3 3 2 1 0 0 1 0 0 1 1 1 3 3 1 3 4 4 3 1 1 1 2 3 4 4 5 5 2 2 2 1 1 1 2 3 4 6 8 8 8 7 8 7 8 8 7 7 7 7 7 7 7 7 7 7 8 8 8 8 8 9
4 5 5 4 4 4 4 4 5 4 5 3 3 4 2 2 1 1 2 1 1 1 1 2 3 3 2 7 7 5 0 2 2 4 5 7 6 6 4 4 6 4 4 4 3 3 3 4 4 4 5 6 6 7 6 8 9 9 7 7 8 8 8 8 8 8 8 8 8 8 8 8 9 9
3 4 5 4 4 4 8 10 9 9 8 4 5 4 2 2 2 2 1 3 2 1 0 1 1 3 7 6 6 4 5 7 8 5 5 3 2 2 4 4 3 4 5 5 5 5 5 5 4 4 4 4 5 5 6 4 6 5 6 7 7 8 7 8 8 8 9 8 8 8 8 9 9 9
5 5 5 5 9 9 9 10 11 12 9 6 5 3 3 4 4 3 3 2 2 2 2 3 3 3 6 7 9 8 8 7 2 1 4 5 3 2 3 3 5 6 6 6 6 6 4 5 5 5 6 5 7 4 4 4 3 4 6 6 7 7 7 7 7 7 6 6 6 7 7 7 8 8
6 5 5 4 6 7 8 5 6 12 9 10 10 10 9 7 4 5 5 4 3 3 3 2 2 4 4 6 7 6 7 6 7 7 6 5 4 6 6 7 2 7 8 7 6 7 5 5 7 6 6 5 4 4 4 4 6 6 7 8 8 8 7 7 6 7 7 7 6 6 5 4 3 4
5 5 5 4 3 4 4 2 5 8 9 8 9 9 9 8 10 10 6 5 4 3 4 3 3 2 4 5 6 4 5 7 6 7 6 7 7 7 7 7 8 4 10 8 7 7 4 5 5 5 3 1 1 1 1 2 3 4 6 6 6 7 7 7 7 7 7 6 6 6 6 6 6 8
6 5 5 4 3 3 7 5 5 3 2 6 8 7 5 6 7 7 7 11 8 3 4 5 4 4 2 4 7 9 10 7 9 7 7 7 7 7 8 9 9 4 9 6 6 7 4 6 5 4 2 2 2 2 2 2 2 4 5 5 6 7 7 7 8 7 7 6 7 7 8 8 9 10
5 5 5 5 4 2 1 1 2 1 1 2 2 5 2 2 3 6 6 4 8 7 5 3 6 3 2 4 3 5 5 9 9 8 9 8 7 7 11 10 4 2 8 10 7 5 5 7 5 4 2 3 3 2 3 2 2 4 4 5 6 6 7 7 7 6 6 7 8 8 9 10 11 12
4 5 5 4 4 2 1 1 2 3 2 1 0 2 1 2 2 2 1 4 5 4 5 5 7 6 5 5 2 4 3 8 6 7 8 8 9 6 5 3 4 3 7 8 6 9 3 5 6 5 4 4 3 2 2 1 1 2 4 5 5 5 3 3 4 5 7 9 9 10 10 11 12 12
5 3 3 2 1 2 2 6 8 3 2 1 2 1 1 2 2 1 2 3 2 6 7 7 6 6 6 6 5 6 7 6 4 3 0 2 3 4 6 7 4 6 3 8 8 5 3 4 8 4 3 4 3 2 2 2 1 1 2 2 2 2 2 2 3 4 5 7 9 10 11 12 13 13
4 3 3 2 3 3 3 6 7 7 3 3 2 2 1 1 1 2 4 6 5 2 5 8 9 9 9 9 10 9 12 7 4 3 3 4 4 6 7 6 3 7 4 5 8 6 3 4 4 5 2 3 3 2 1 1 1 1 2 3 4 5 6 6 8 9 8 8 9 11 13 13 14 16
4 6 11 6 4 3 3 5 6 8 3 3 1 1 1 2 3 3 3 4 4 5 3 7 6 7 9 8 8 6 8 10 8 5 8 6 6 7 8 9 6 2 4 6 7 4 3 4 3 5 3 3 2 1 1 2 3 4 4 5 6 7 8 9 10 10 11 11 10 11 14 14 13 9
4 4 6 8 6 4 3 5 6 7 4 1 0 1 1 3 3 4 2 3 4 4 5 2 3 3 5 5 3 5 12 12 13 9 8 5 7 8 8 7 1 1 4 5 8 9 2 7 3 4 4 1 2 1 1 1 2 3 4 5 5 9 10 10 9 10 10 11 12 12 11 11 10 7
4 2 2 4 5 4 3 3 4 4 5 1 2 1 2 2 4 2 2 4 4 3 3 4 2 5 5 3 3 2 3 6 5 6 5 5 6 7 6 5 5 4 3 2 7 8 2 4 6 2 3 4 3 2 1 2 2 4 3 5 5 7 10 10 8 9 10 10 10 10 10 9 8 8
4 1 1 0 1 1 3 4 5 5 4 4 2 2 2 3 2 2 2 5 6 3 3 2 1 3 3 2 2 2 3 2 2 2 1 1 2 3 4 5 6 6 4 3 5 4 3 5 6 4 2 3 2 3 2 2 3 3 3 4 5 5 5 5 5 6 8 10 10 10 8 8 7 5
2 2 1 1 1 1 2 3 4 5 5 5 3 2 4 6 5 4 4 5 4 4 4 2 3 2 2 2 2 2 3 3 3 2 3 3 3 1 2 3 5 5 5 3 9 6 6 4 8 7 3 4 2 2 4 2 2 3 4 4 5 5 5 6 5 6 5 5 5 5 7 8 7 7
3 3 2 1 1 1 2 3 4 4 6 5 2 3 5 7 8 7 5 4 5 2 1 3 3 3 2 1 0 1 2 2 2 2 2 2 2 2 3 3 2 3 3 3 7 6 5 3 6 9 7 4 5 4 4 3 3 4 4 4 5 4 5 6 7 5 4 5 5 9 9 10 10 9
3 2 1 1 2 2 4 6 6 6 5 3 6 5 7 8 7 2 1 0 1 3 3 3 3 3 3 2 2 2 1 2 2 2 2 2 1 2 3 4 5 4 3 1 1 3 5 4 6 5 7 9 7 6 5 2 4 5 5 5 4 3 4 4 5 6 5 5 6 5 5 5 5 6
1 3 3 2 3 3 4 5 6 5 6 7 6 6 7 7 2 1 1 1 2 3 3 3 3 2 1 2 1 1 2 2 2 3 3 2 2 2 3 4 4 5 3 3 3 2 2 4 5 5 5 5 6 4 5 5 6 5 6 8 5 4 5 5 5 5 5 5 5 5 5 5 5 4
3 3 1 0 2 3 3 2 2 2 3 4 6 7 4 1 1 1 1 1 2 3 2 3 4 3 2 1 2 2 2 2 1 1 2 3 3 2 2 3 5 4 4 3 3 3 3 4 5 6 5 2 2 6 5 7 5 5 7 6 5 6 5 5 5 4 6 6 6 5 4 5 6 7
2 1 1 2 4 4 4 4 4 3 3 3 1 2 1 0 0 0 1 2 3 2 2 2 2 2 2 2 2 1 1 1 2 2 2 2 1 1 1 3 3 4 5 5 4 2 3 3 5 7 6 4 3 4 5 5 6 7 6 5 7 6 6 6 5 5 5 6 6 5 4 5 6 6
2 2 3 3 1 1 1 2 2 2 2 0 1 0 1 0 1 2 4 4 2 2 2 3 2 2 2 1 1 2 2 2 2 2 2 1 1 1 1 2 2 2 3 4 5 5 4 3 3 3 4 6 6 4 4 4 6 7 7 7 5 3 6 7 7 6 6 7 6 5 4 4 5 4
1 0 1 2 3 2 2 2 2 1 0 1 0 1 0 0 0 1 1 2 1 1 2 3 3 2 3 2 1 1 2 2 1 1 2 2 1 1 3 2 2 2 2 3 3 5 5 5 5 5 4 3 4 8 8 5 3 5 7 7 6 5 6 6 6 6 7 6 5 5 5 5 5 5
1 0 1 1 1 4 3 2 2 2 3 2 1 1 1 0 0 0 0 1 2 1 3 2 3 4 4 3 3 2 1 0 0 0 2 1 1 1 1 2 2 2 3 3 3 3 3 4 5 6 6 5 4 3 2 4 6 6 5 6 6 5 5 6 5 6 7 6 7 5 4 5 5 5
0 0 1 2 2 3 3 4 5 5 5 4 4 4 2 1 1 0 0 2 1 0 1 1 1 2 2 2 2 2 2 1 0 1 2 2 2 1 1 1 2 2 3 3 3 2 2 3 5 5 4 4 3 2 4 1 5 6 5 5 5 5 6 6 6 6 6 4 4 5 4 4 5 5
2 2 2 3 4 4 4 4 4 5 6 5 5 4 3 4 3 2 3 3 2 1 1 1 1 1 1 2 1 1 0 0 0 1 2 2 2 2 2 2 2 2 3 3 3 2 1 3 3 4 4 3 2 1 1 3 1 6 8 7 5 5 5 6 6 5 6 5 5 5 6 6 6 5
3 2 2 4 5 4 5 4 5 5 6 6 6 5 5 5 5 5 3 1 2 2 2 2 1 1 1 1 1 0 0 0 0 0 1 2 3 2 2 1 2 3 3 2 2 2 1 1 1 3 4 3 2 3 1 0 1 2 4 6 6 5 6 6 6 6 5 5 5 6 7 5 5 5
5 3 4 4 5 5 5 6 4 3 5 6 6 5 5 5 4 3 1 2 3 2 2 2 2 1 2 2 3 2 1 1 1 1 1 2 3 2 2 1 1 2 2 3 2 2 1 2 3 3 4 5 3 2 3 1 1 3 4 5 6 6 5 6 6 7 6 5 7 6 3 4 6 5
5 5 5 6 6 5 6 7 6 6 3 5 6 6 6 5 4 3 3 5 3 3 3 3 3 3 3 3 3 3 3 3 3 3 2 3 3 4 3 3 3 2 3 3 2 2 2 4 4 4 5 6 6 4 5 5 6 3 6 9 6 6 6 7 7 5 6 6 6 2 4 2 3 2
5 5 5 5 6 6 6 5 6 4 5 6 7 6 6 6 5 5 6 5 5 4 5 5 4 3 4 4 4 3 3 4 5 4 4 4 3 3 3 3 4 4 3 3 4 5 5 5 6 6 5 5 4 5 4 3 1 2 4 6 10 10 7 7 7 7 6 6 5 5 6 2 5 2
4 5 6 5 6 6 6 4 4 6 6 6 6 6 7 6 6 6 6 6 5 5 5 5 4 5 5 5 4 5 5 5 5 5 4 4 3 3 4 4 3 4 5 4 5 5 7 7 5 8 5 3 1 4 4 2 1 2 5 5 7 11 12 11 8 8 7 5 7 7 7 6 6 3
5 5 6 5 6 7 6 6 5 6 6 6 6 7 6 7 7 8 7 6 5 5 5 6 6 6 6 6 6 5 6 6 5 5 5 5 5 3 5 5 5 4 5 6 7 8 4 2 4 5 4 3 2 4 5 6 5 3 4 4 5 7 9 12 13 12 8 7 8 5 4 2 1 1
5 6 6 6 5 7 7 6 6 6 6 6 5 6 7 7 7 7 6 5 6 6 7 6 6 6 6 6 6 6 6 6 6 6 5 5 6 6 6 6 6 6 7 6 5 4 2 3 3 5 5 5 5 4 6 5 4 4 4 4 6 5 6 8 11 11 12 14 13 10 9 8 6 4
6 6 6 6 6 7 7 6 6 6 6 6 6 6 7 7 7 7 7 7 7 7 7 6 6 6 6 7 7 6 7 7 7 7 7 6 6 6 6 5 5 5 6 6 5 5 3 4 4 5 5 6 5 5 7 3 4 5 6 5 3 4 7 6 5 6 7 10 14 15 14 12 11 12
6 6 6 6 6 6 6 6 6 6 6 6 6 6 5 5 6 7 6 6 6 6 6 6 6 6 6 6 6 7 8 8 8 8 7 7 6 6 6 6 6 5 6 6 5 5 4 4 4 4 5 6 4 6 4 3 4 4 4 4 6 6 6 5 6 7 7 7 11 15 13 13 13 14
Wind_Direction
256 261 277 274 284 289 288 260 214 212 221 229 209 195 206 180 180 264 284 270 227 278 201 202 233 194 193 188 183 170 173 179 173 152 162 171 172 177 171 100 334 78 21 189 172 190 205 210 214 210 210 207 210 223 224 228 223 224 226 234 249 254 254 7 131 204 193 200 207 219 222 230 227 225
256 268 271 263 272 278 285 258 243 203 213 229 234 228 218 176 211 216 230 270 223 244 265 206 222 196 192 181 176 174 181 190 172 167 162 166 166 167 171 206 300 88 93 108 168 186 195 204 205 208 203 203 205 216 224 229 226 228 226 235 231 232 229 205 213 212 206 207 214 217 218 217 220 227
239 260 264 259 261 272 278 239 238 233 211 225 233 243 217 203 213 225 216 258 278 195 224 239 215 179 188 174 174 177 175 184 172 167 171 173 164 158 168 176 172 147 152 53 351 224 207 201 197 204 202 199 203 208 213 217 220 216 220 211 223 223 213 210 217 217 210 208 210 209 212 216 224 232
233 237 252 257 257 262 272 288 269 228 223 226 230 241 238 226 220 218 210 217 258 234 217 223 217 179 162 170 176 173 159 181 170 160 165 184 167 160 166 171 171 173 166 148 148 275 276 207 203 197 194 195 195 202 202 206 204 207 206 209 215 221 202 195 199 202 204 208 211 212 218 224 229 238
244 244 250 257 257 239 267 272 274 255 221 222 232 245 246 236 229 215 220 224 252 290 231 199 212 161 147 180 180 146 141 141 146 130 151 180 187 174 169 170 175 172 169 163 151 139 212 214 211 210 192 196 203 199 191 192 196 197 206 211 192 143 162 175 182 196 208 219 222 226 231 235 240 244
246 250 254 260 255 246 260 277 280 276 274 256 258 252 236 237 235 206 204 239 237 254 313 239 128 156 180 171 190 165 153 163 143 135 164 175 184 174 167 174 200 180 170 165 150 125 96 96 106 145 165 171 199 159 125 102 91 97 97 96 157 170 173 179 189 200 212 221 227 236 240 243 247 251
245 249 251 256 250 248 267 271 275 283 282 288 287 281 261 262 280 242 212 202 232 246 259 184 146 180 185 174 182 144 148 153 149 147 160 155 145 148 158 168 231 208 175 164 147 136 123 111 111 105 100 102 117 119 110 116 108 100 104 114 172 192 188 188 197 207 223 229 234 238 239 240 240 242
237 242 251 248 241 242 252 265 273 268 268 275 270 266 254 221 259 301 181 205 214 222 247 261 208 177 170 92 99 103 95 114 121 140 109 112 150 122 149 176 211 212 190 169 160 154 147 145 139 135 137 133 122 116 125 129 134 128 124 129 170 194 204 196 202 218 230 239 244 246 246 234 231 229
224 234 231 238 236 233 245 262 259 256 266 272 275 261 245 218 212 202 84 156 180 181 218 238 121 127 87 80 101 136 127 99 96 137 151 161 179 214 196 194 199 193 191 173 168 163 159 158 156 153 151 146 145 148 149 155 157 162 172 187 200 207 223 230 230 231 236 239 243 242 239 225 211 208
233 227 230 234 229 227 236 254 261 269 276 289 284 276 267 261 147 110 336 359 53 147 221 199 184 164 157 103 74 65 87 154 164 128 78 114 232 227 213 208 168 148 173 185 184 173 170 173 167 168 169 170 170 169 172 174 178 185 195 201 204 207 210 220 228 229 232 233 236 231 220 217 221 224
241 232 230 235 229 237 242 253 257 262 272 272 283 286 278 203 118 324 284 240 192 198 169 222 211 180 202 110 99 81 50 10 30 105 170 240 216 206 202 203 167 142 144 107 82 53 138 163 180 187 184 187 187 187 187 188 188 196 204 209 214 214 209 207 215 221 221 220 220 221 220 222 227 230
231 229 232 234 231 229 240 245 259 251 258 260 275 275 228 173 172 250 259 258 209 185 190 186 186 181 110 46 46 42 323 212 224 206 205 205 203 209 209 208 185 185 174 187 193 189 178 184 175 191 201 202 203 201 199 200 200 201 202 211 218 219 218 213 211 217 219 218 220 226 231 236 241 246
249 240 234 234 235 234 251 256 255 249 241 242 257 259 220 220 211 264 252 227 245 290 140 318 9 113 90 97 111 170 215 215 213 188 202 238 248 206 205 226 199 191 190 198 199 202 195 187 198 188 205 214 196 208 207 216 211 203 208 219 224 226 222 221 219 221 223 223 224 227 232 237 243 247
269 259 245 240 243 255 269 277 275 269 262 272 279 299 345 317 307 279 256 262 255 255 255 238 160 141 138 149 167 179 213 229 255 255 207 217 190 209 245 226 211 185 187 191 211 217 195 191 201 196 209 212 209 183 188 198 187 210 214 221 229 229 227 227 226 223 220 217 217 222 227 232 236 241
262 261 253 249 257 261 260 257 276 280 260 237 248 258 257 261 255 282 285 269 232 234 237 222 165 176 178 172 189 185 193 214 212 219 218 205 173 210 208 231 208 190 180 199 211 226 197 192 208 212 218 205 188 174 190 189 198 206 212 216 218 218 219 219 218 211 202 199 199 200 200 189 183 202
261 263 259 257 247 243 229 207 236 253 258 262 257 256 259 258 260 259 259 285 292 253 254 254 235 178 192 176 170 179 185 213 224 225 219 207 196 201 221 231 229 189 177 187 207 233 181 198 214 219 221 110 108 126 142 198 219 219 228 233 226 220 208 201 202 202 197 190 178 164 141 128 128 125
247 252 257 264 255 240 251 241 247 238 253 256 240 237 239 254 250 261 258 251 252 267 258 255 256 226 199 152 186 195 200 195 203 205 214 225 216 211 221 230 229 180 177 176 212 234 185 186 210 205 67 62 42 46 34 349 298 264 250 246 235 224 216 204 198 193 186 170 152 138 131 126 121 114
253 248 241 243 256 259 249 163 230 243 155 82 16 302 284 246 253 249 242 263 274 267 271 256 260 231 164 211 169 200 188 182 197 188 211 215 225 220 225 232 252 89 169 191 193 237 196 186 183 181 123 88 88 56 32 2 293 279 274 253 242 230 222 213 196 178 162 148 139 132 127 122 116 114
267 248 235 218 227 263 336 325 236 194 179 166 232 209 204 250 274 297 316 269 258 240 226 239 250 248 226 233 192 102 240 229 207 191 207 214 216 234 273 318 256 216 191 194 174 231 180 157 172 184 146 123 97 67 58 350 292 270 253 253 248 248 247 222 193 167 150 141 136 130 125 119 116 112
321 287 218 196 102 77 57 15 5 17 126 105 166 292 360 352 357 11 3 351 212 203 221 226 216 233 221 213 208 174 200 238 243 225 98 134 144 205 242 240 261 247 192 197 198 223 188 184 179 143 104 94 87 49 42 353 311 275 257 252 238 219 178 156 113 111 118 124 123 120 116 112 106 101
338 22 49 83 98 78 61 21 1 6 64 87 72 61 38 351 13 338 326 336 2 355 237 236 225 231 228 225 227 192 188 202 208 189 189 209 163 187 233 245 235 244 201 206 212 212 206 184 142 110 96 114 126 108 79 35 40 144 159 147 143 136 123 111 106 102 104 111 120 122 113 104 99 92
23 39 60 64 67 79 56 17 11 6 45 78 67 54 28 353 332 306 323 328 320 321 277 244 233 224 230 230 230 187 206 213 200 178 210 201 169 205 219 235 219 224 205 220 187 195 226 121 95 110 105 71 34 82 122 88 66 70 68 89 96 94 95 101 111 127 127 123 119 111 106 102 95 85
55 39 49 58 62 67 42 25 22 13 25 88 314 192 160 270 266 254 300 308 312 322 337 344 119 222 241 232 225 182 190 211 211 206 219 185 189 213 223 233 191 263 258 219 168 209 168 133 136 131 115 44 316 16 356 76 67 62 77 76 84 110 119 123 128 118 118 119 114 109 109 111 105 96
84 67 47 44 55 33 18 2 14 23 5 359 255 236 215 233 257 236 295 269 246 263 276 296 273 184 205 203 210 239 219 203 209 192 196 190 196 212 229 219 199 211 240 267 175 193 93 160 150 131 130 140 221 139 111 79 75 76 86 102 97 106 107 109 94 103 105 104 107 112 106 99 110 116
116 102 69 308 335 342 335 340 337 347 331 312 272 254 242 242 298 321 283 280 302 307 295 302 202 136 154 152 156 136 117 80 43 25 40 170 217 232 242 236 227 237 231 224 193 170 149 164 145 138 87 66 102 128 112 102 95 115 117 105 114 104 109 112 114 106 99 95 94 86 82 85 71 88
136 173 212 227 220 168 275 302 315 316 308 285 266 274 274 306 305 272 263 276 284 282 281 222 153 131 117 100 87 99 105 97 74 49 32 27 27 50 297 262 256 255 244 198 184 180 125 172 171 155 124 123 110 130 132 135 138 121 103 102 117 134 138 137 128 119 126 131 117 117 107 91 84 82
185 222 214 246 173 115 332 312 310 312 308 285 252 277 273 273 272 273 271 271 272 252 171 141 131 131 108 87 48 139 106 81 94 83 70 57 52 25 4 356 346 295 300 181 198 178 154 139 164 166 165 143 131 158 148 144 154 137 128 132 140 136 138 144 140 137 133 131 122 120 105 98 91 80
201 213 235 268 8 345 320 318 319 317 311 294 293 281 278 274 276 277 296 13 153 123 119 129 126 139 157 174 200 223 129 102 84 78 43 33 37 58 45 20 23 20 23 19 192 161 156 142 169 174 152 157 158 167 161 125 125 149 139 137 135 135 151 150 138 142 141 131 135 135 127 126 116 107
180 164 141 137 181 245 288 301 311 301 287 271 260 263 273 288 342 329 84 125 114 119 135 138 126 132 184 207 184 95 101 95 82 74 53 34 29 34 71 51 41 25 25 38 56 80 121 149 161 143 149 167 158 159 146 153 152 157 155 147 150 171 162 163 155 150 137 140 140 139 140 133 126 118
17 63 84 278 295 277 253 250 268 289 310 314 272 266 263 342 314 350 78 87 149 154 172 169 167 166 174 126 100 109 97 77 82 124 92 65 26 6 23 53 32 22 16 38 75 93 119 141 149 150 143 141 147 153 149 133 147 159 167 160 134 141 173 165 162 144 143 146 141 136 138 137 132 138
6 308 241 225 216 231 247 249 254 289 325 324 65 42 360 340 44 33 77 151 139 125 100 59 59 55 43 37 65 62 60 49 22 59 98 91 78 76 70 87 55 32 17 10 24 50 115 130 141 150 148 136 110 148 152 140 130 157 167 156 164 165 167 166 161 147 138 134 133 135 140 138 149 162
291 291 299 314 273 283 325 335 15 14 335 306 96 75 44 345 238 173 147 109 89 94 104 79 66 61 57 54 34 30 32 27 22 30 58 46 67 53 31 70 56 53 41 22 24 22 40 69 121 130 138 157 150 131 122 135 153 161 160 165 168 106 147 165 152 141 132 126 121 123 132 167 183 168
298 309 13 6 357 348 309 317 317 360 57 88 300 145 33 5 5 32 64 110 114 123 118 125 117 106 85 78 58 50 35 11 21 25 73 41 53 10 31 85 126 112 90 67 50 34 40 52 53 67 64 54 118 142 140 127 151 165 163 163 164 149 161 159 156 142 135 134 151 166 180 195 191 187
94 19 3 311 299 291 283 242 234 196 175 172 171 278 245 313 31 54 171 160 168 141 144 140 146 154 154 149 158 141 147 107 62 78 131 139 133 125 129 138 107 96 95 81 73 66 64 62 72 62 61 66 64 78 133 150 154 169 165 167 168 161 161 163 155 151 162 168 161 169 191 198 202 197
114 141 315 296 296 275 254 228 208 187 176 190 191 222 241 258 264 286 255 207 197 117 118 133 143 159 150 162 173 187 198 195 102 59 52 62 49 45 69 74 89 93 100 100 96 77 86 101 98 84 75 72 68 24 24 45 153 152 148 165 174 160 162 169 161 164 167 157 163 181 197 196 199 203
216 211 223 264 269 263 246 211 201 186 184 191 193 193 184 229 244 225 231 230 164 130 112 119 116 127 160 161 173 176 226 89 68 74 65 66 78 70 70 117 142 110 94 101 107 81 102 132 138 134 134 140 120 141 272 353 57 163 163 175 175 168 158 163 167 167 175 178 187 186 194 202 204 188
216 240 240 248 262 257 252 240 192 195 191 191 198 191 187 202 229 224 232 202 179 163 175 145 138 134 117 135 137 119 80 84 90 281 103 87 80 73 81 103 131 126 116 102 112 123 109 152 102 126 123 133 172 217 257 343 310 254 179 165 170 175 160 162 164 172 183 178 192 203 211 203 212 202
217 220 236 249 248 250 238 244 239 200 199 202 192 183 191 207 211 234 181 174 213 171 181 169 183 151 159 151 156 176 210 236 200 203 180 139 128 117 123 118 101 114 118 126 127 148 141 163 175 173 159 169 178 193 223 280 210 233 186 160 168 171 160 157 173 178 182 185 202 210 195 229 226 224
213 222 228 243 252 231 226 226 220 225 211 182 180 186 187 196 197 226 202 212 213 197 189 192 196 203 191 190 185 190 206 233 249 226 193 186 168 160 153 149 140 140 138 150 147 176 173 191 199 196 177 177 188 205 195 188 223 182 181 178 159 149 170 172 177 173 172 192 213 180 225 262 349 274
222 222 232 231 250 237 224 202 215 174 179 180 182 183 177 186 193 205 211 211 209 206 194 202 202 202 212 205 204 204 225 228 233 223 207 199 193 178 172 168 163 158 158 176 194 210 210 213 205 199 195 195 214 218 173 160 138 140 173 194 177 173 178 168 178 175 189 197 149 166 221 210 240 297
215 223 244 236 245 250 242 221 193 169 187 165 168 172 183 182 189 206 209 205 206 199 208 213 196 195 207 214 210 199 220 237 235 223 207 201 203 193 186 172 168 162 172 203 215 217 224 214 196 193 188 208 123 89 84 109 167 184 193 208 218 204 184 181 178 177 193 165 166 181 194 196 211 226
210 225 242 242 242 245 221 205 187 184 188 179 163 169 179 186 198 206 202 205 204 208 210 209 206 200 206 207 210 208 216 225 227 226 209 195 205 207 195 180 179 181 184 212 212 226 224 156 201 201 196 181 146 171 202 202 204 196 197 204 203 219 213 201 192 189 169 156 162 170 174 153 83 229
221 225 242 250 240 232 220 205 184 189 189 187 178 169 165 182 199 207 193 201 210 212 214 217 211 207 219 212 206 202 210 225 218 214 215 207 199 197 206 209 195 190 203 223 235 235 191 183 188 193 198 201 215 196 222 216 210 191 198 191 204 199 215 223 223 208 181 181 187 196 181 172 144 194
230 236 243 245 244 228 212 208 196 189 182 189 190 179 176 172 189 201 198 200 198 212 219 216 215 214 217 214 207 203 209 217 210 207 209 210 207 205 210 213 210 207 208 222 237 238 211 191 197 193 201 223 214 210 235 213 205 208 202 199 183 180 208 213 224 238 240 233 217 210 211 199 197 194
227 233 247 254 240 233 206 196 193 185 181 183 176 184 192 185 196 206 212 210 214 215 209 212 223 229 226 215 197 211 217 209 206 212 208 205 204 207 208 208 206 211 221 217 215 240 205 195 199 199 218 233 219 226 233 201 208 198 214 201 204 204 207 193 206 224 228 242 234 226 229 228 234 240